[[{"header":{"parameterUnit":"m.s-1","parameterCategory":1,"la1":30.2991,"la2":30.254,"lo1":-89.0895,"lo2":-89.0444,"dy":0.0017,"dx":0.0017,"nx":28,"ny":28,"refTime":"2024-02-01T03:00:00:Z","depth":0,"parameterNumber":2,"parameterNumberName":"U-component_of_WINDS"},"data":[0,0,0,0,0,0,0,0,0,0,0,0,0,0,0,0,0,0,0,0,0,0,0,0,0,0,0,0,0,0,0,0,0,0,0,0,0,0,0,0,0,0,0,0,0,0,0,0,0,0,0,0,0,0,0,0,0,0,-0.3876,-0.3877,0,-0.3971,-0.3972,-0.3974,-0.3996,-0.3996,-0.3995,-0.3994,-0.4096,-0.4099,-0.4102,0,0,0,0,0,0,0,0,0,0,0,0,0,-0.3717,-0.372,-0.3876,-0.3877,-0.3878,-0.3971,-0.3972,-0.3974,-0.3996,-0.3996,-0.3995,-0.3994,-0.4095,-0.4099,-0.4103,0,0,0,0,0,0,0,0,0,0,0,0,0,-0.3796,-0.372,-0.3875,-0.39,-0.3904,-0.3971,-0.3973,-0.3974,-0.3997,-0.3996,-0.3995,-0.3994,-0.4093,-0.4098,-0.4103,-0.4153,0,0,-0.4118,-0.412,0,0,0,0,0,0,0,0,-0.3792,-0.3802,-0.3896,-0.3899,-0.3903,-0.3971,-0.3954,-0.4034,-0.3997,-0.3961,-0.3994,-0.3993,-0.4055,-0.4063,-0.4083,-0.4158,-0.4162,-0.4119,-0.4122,-0.4124,-0.4125,0,0,0,0,0,0,0,-0.3786,-0.3798,-0.3914,-0.3897,-0.3901,-0.3908,-0.3919,-0.3969,-0.4013,-0.3964,-0.3966,-0.3977,-0.4057,-0.4079,-0.4086,-0.4164,-0.4119,-0.4123,-0.4126,-0.4128,-0.4287,-0.4289,0,0,0,0,0,0,-0.3776,-0.3794,-0.3911,-0.3916,-0.3844,-0.3912,-0.3923,-0.395,-0.4012,-0.4021,-0.3978,-0.3978,-0.4071,-0.408,-0.409,-0.4155,-0.4124,-0.4128,-0.4131,-0.4286,-0.4288,-0.4289,0,0,0,0,0,0,-0.3772,-0.3786,-0.3907,-0.3856,-0.3871,-0.3916,-0.3945,-0.3952,-0.3974,-0.4022,-0.4031,-0.3992,-0.407,-0.4083,-0.4138,-0.4158,-0.4131,-0.4135,-0.4285,-0.4287,-0.4288,-0.4283,0,0,0,0,0,0,-0.3768,-0.3785,-0.3803,-0.3856,-0.3874,-0.3952,-0.3947,-0.3955,-0.3982,-0.3983,-0.4038,-0.4046,-0.407,-0.413,-0.4143,-0.4165,-0.4139,-0.4283,-0.4285,-0.4288,-0.4282,-0.4285,-0.4287,0,0,0,0,0,-0.3762,-0.3798,-0.3804,-0.3818,-0.3898,-0.3953,-0.3963,-0.399,-0.3984,-0.4004,-0.4035,-0.4044,-0.4154,-0.4136,-0.415,-0.4174,-0.4282,-0.4285,-0.4288,-0.4281,-0.4284,-0.4287,0,0,0,0,0,0,-0.3748,-0.3805,-0.3813,-0.3866,-0.3904,-0.3956,-0.3982,-0.3993,-0.4034,-0.4034,-0.4066,-0.4078,-0.4132,-0.4158,-0.4137,-0.4227,-0.4218,-0.4224,-0.4208,-0.4212,-0.4214,-0.4208,-0.4143,0,0,0,0,0,-0.3751,-0.3789,-0.3838,-0.3881,-0.39,-0.3938,-0.3963,-0.398,-0.4021,-0.4038,-0.4073,-0.4114,-0.4158,-0.4186,-0.4229,-0.4285,-0.4299,-0.4309,-0.4312,-0.4314,-0.4319,-0.4354,-0.4359,-0.4298,-0.4298,-0.4298,0,0,-0.3757,-0.3794,-0.3816,-0.3879,-0.3911,-0.3952,-0.3951,-0.3994,-0.4025,-0.4044,-0.4099,-0.4126,-0.4174,-0.4231,-0.4257,-0.4254,-0.4339,-0.4317,-0.4319,-0.4323,-0.4357,-0.4363,-0.4368,-0.43,-0.43,-0.43,0,0,-0.3791,-0.3822,-0.3862,-0.3893,-0.3941,-0.3966,-0.3976,-0.4026,-0.4045,-0.41,-0.4116,-0.4154,-0.4228,-0.4263,-0.429,-0.4338,-0.4349,-0.4351,-0.4366,-0.4399,-0.4404,-0.4408,-0.4428,-0.4434,-0.4355,-0.4355,-0.4355,0,-0.3794,-0.3855,-0.3881,-0.3924,-0.3952,-0.3971,-0.4013,-0.4043,-0.4102,-0.4122,-0.4117,-0.4212,-0.4245,-0.4311,-0.4323,-0.4343,-0.4358,-0.4345,-0.4401,-0.4405,-0.441,-0.4429,-0.4436,-0.4355,-0.4355,-0.4355,-0.4355,0,-0.3858,-0.39,-0.3927,-0.3983,-0.4015,-0.4057,-0.4091,-0.4119,-0.4134,-0.416,-0.4217,-0.4258,-0.431,-0.4327,-0.4342,-0.4396,-0.4393,-0.4394,-0.4386,-0.4416,-0.4434,-0.4442,-0.4356,-0.4355,-0.4355,-0.4355,0,0,-0.3886,-0.3956,-0.3966,-0.3993,-0.4047,-0.4081,-0.4125,-0.4175,-0.42,-0.4241,-0.428,-0.4343,-0.4345,-0.4375,-0.4395,-0.4423,-0.4462,-0.4421,-0.4423,-0.443,-0.4527,-0.4528,-0.4536,-0.4469,-0.447,-0.4471,-0.4524,0,-0.3928,-0.4006,-0.4031,-0.4097,-0.4137,-0.4156,-0.4194,-0.4233,-0.4259,-0.4298,-0.4327,-0.4372,-0.437,-0.4389,-0.4418,-0.4451,-0.4482,-0.4447,-0.4508,-0.451,-0.4498,-0.4545,-0.4545,-0.4593,-0.4531,-0.4532,-0.4533,0,-0.3987,-0.4029,-0.4098,-0.4149,-0.4167,-0.4201,-0.4251,-0.4287,-0.4332,-0.4349,-0.4384,-0.4401,-0.445,-0.4437,-0.4506,-0.4482,-0.4508,-0.4528,-0.4531,-0.4539,-0.4525,-0.4557,-0.4608,-0.4617,-0.4545,-0.4544,-0.4543,0,-0.4004,-0.4077,-0.4128,-0.415,-0.421,-0.4234,-0.426,-0.4304,-0.4333,-0.4377,-0.4397,-0.4445,-0.4473,-0.4511,-0.4542,-0.4529,-0.4609,-0.4598,-0.4626,-0.4626,-0.4644,-0.4643,-0.4703,-0.4657,-0.4657,-0.4657,-0.4656,0,-0.4049,-0.4092,-0.4136,-0.4168,-0.4217,-0.4246,-0.4294,-0.4322,-0.4361,-0.44,-0.4419,-0.4455,-0.4492,-0.4535,-0.4559,-0.4614,-0.4625,-0.4642,-0.4649,-0.4642,-0.464,-0.4661,-0.466,-0.4659,-0.4658,-0.4658,-0.4657,0,-0.4076,-0.4108,-0.4166,-0.4217,-0.4232,-0.4266,-0.4311,-0.4344,-0.437,-0.442,-0.4433,-0.4476,-0.4526,-0.456,-0.4625,-0.4641,-0.4702,-0.4707,-0.4687,-0.469,-0.4717,-0.4715,-0.4795,-0.4808,-0.4751,-0.4751,-0.4752,0,-0.4104,-0.4138,-0.4193,-0.422,-0.4246,-0.429,-0.432,-0.435,-0.4381,-0.4436,-0.4463,-0.4514,-0.4557,-0.4638,-0.4676,-0.4726,-0.4734,-0.4758,-0.4741,-0.4734,-0.4737,-0.4736,-0.474,-0.4761,-0.4762,-0.4762,-0.4762,0,-0.4152,-0.4166,-0.4208,-0.4256,-0.4291,-0.4331,-0.437,-0.4392,-0.443,-0.4464,-0.4516,-0.4549,-0.4615,-0.4668,-0.4722,-0.4751,-0.4764,-0.4767,-0.4777,-0.4771,-0.4759,-0.4769,-0.4697,-0.4765,-0.4765,-0.4765,-0.4765,-0.4765,-0.4182,-0.4213,-0.4257,-0.4304,-0.4337,-0.4374,-0.4408,-0.4439,-0.4482,-0.4538,-0.4554,-0.4609,-0.4655,-0.4729,-0.4759,-0.4803,-0.4801,-0.4814,-0.4818,-0.4821,-0.4823,-0.475,-0.4813,-0.4813,-0.4813,-0.4813,-0.4813,0,-0.4232,-0.4262,-0.4304,-0.4359,-0.4397,-0.4404,-0.4449,-0.448,-0.4528,-0.4569,-0.4611,-0.4672,-0.4723,-0.4765,-0.4818,-0.4846,-0.4853,-0.4859,-0.4859,-0.4866,-0.4821,-0.4808,-0.4852,-0.4852,-0.4852,-0.4852,-0.4852,-0.4852,-0.4263,-0.4317,-0.4336,-0.4407,-0.4437,-0.449,-0.4515,-0.4551,-0.4584,-0.4651,-0.4693,-0.4719,-0.4762,-0.4818,-0.4866,-0.4877,-0.4897,-0.4902,-0.4915,-0.4873,-0.4868,-0.4864,-0.4853,-0.4906,-0.4906,-0.4957,-0.4957,-0.4958]},{"header":{"parameterUnit":"m.s-1","parameterCategory":1,"la1":30.2991,"la2":30.254,"lo1":-89.0895,"lo2":-89.0444,"dy":0.0017,"dx":0.0017,"nx":28,"ny":28,"refTime":"2024-02-01T03:00:00:Z","depth":0,"parameterNumber":3,"parameterNumberName":"V-component_of_WINDS"},"data":[0,0,0,0,0,0,0,0,0,0,0,0,0,0,0,0,0,0,0,0,0,0,0,0,0,0,0,0,0,0,0,0,0,0,0,0,0,0,0,0,0,0,0,0,0,0,0,0,0,0,0,0,0,0,0,0,0,0,-1.9666,-1.9667,0,-1.9705,-1.9705,-1.9706,-1.9711,-1.9711,-1.9711,-1.971,-1.9747,-1.9748,-1.975,0,0,0,0,0,0,0,0,0,0,0,0,0,-1.9596,-1.9597,-1.9666,-1.9667,-1.9667,-1.9705,-1.9705,-1.9706,-1.9711,-1.9711,-1.9711,-1.971,-1.9747,-1.9748,-1.975,0,0,0,0,0,0,0,0,0,0,0,0,0,-1.963,-1.9598,-1.9666,-1.9675,-1.9676,-1.9705,-1.9705,-1.9706,-1.9712,-1.9711,-1.9711,-1.971,-1.9746,-1.9748,-1.975,-1.9772,0,0,-1.9756,-1.9757,0,0,0,0,0,0,0,0,-1.9628,-1.9632,-1.9673,-1.9674,-1.9675,-1.9703,-1.9694,-1.9728,-1.9712,-1.9698,-1.971,-1.971,-1.9733,-1.9736,-1.9744,-1.9774,-1.9775,-1.9756,-1.9757,-1.9758,-1.9759,0,0,0,0,0,0,0,-1.9626,-1.9631,-1.9681,-1.9673,-1.9675,-1.9676,-1.968,-1.97,-1.9717,-1.9699,-1.97,-1.9704,-1.9733,-1.9742,-1.9745,-1.9776,-1.9756,-1.9758,-1.9759,-1.976,-1.9827,-1.9827,0,0,0,0,0,0,-1.9622,-1.9629,-1.968,-1.9683,-1.965,-1.9678,-1.9682,-1.9694,-1.9717,-1.972,-1.9705,-1.9704,-1.9739,-1.9742,-1.9746,-1.9774,-1.9758,-1.976,-1.9761,-1.9826,-1.9827,-1.9828,0,0,0,0,0,0,-1.962,-1.9626,-1.9679,-1.9656,-1.9663,-1.968,-1.9693,-1.9696,-1.9704,-1.9722,-1.9724,-1.9711,-1.9739,-1.9743,-1.9766,-1.9775,-1.9761,-1.9762,-1.9825,-1.9826,-1.9827,-1.9829,0,0,0,0,0,0,-1.9618,-1.9626,-1.9635,-1.9656,-1.9664,-1.9698,-1.9694,-1.9697,-1.9708,-1.9708,-1.9728,-1.9731,-1.9739,-1.9763,-1.9768,-1.9777,-1.9764,-1.9825,-1.9826,-1.9827,-1.9828,-1.983,-1.9831,0,0,0,0,0,-1.9616,-1.9633,-1.9635,-1.9641,-1.9675,-1.9699,-1.9703,-1.9713,-1.9709,-1.9718,-1.9729,-1.973,-1.9774,-1.9765,-1.9771,-1.9781,-1.9824,-1.9826,-1.9827,-1.9828,-1.983,-1.9831,0,0,0,0,0,0,-1.9611,-1.9636,-1.9638,-1.9663,-1.9679,-1.97,-1.9711,-1.9714,-1.9731,-1.973,-1.9741,-1.9745,-1.9767,-1.9777,-1.9767,-1.9804,-1.9798,-1.9801,-1.9797,-1.9799,-1.9801,-1.9798,-1.9766,0,0,0,0,0,-1.9613,-1.963,-1.9651,-1.9671,-1.9679,-1.9694,-1.9704,-1.9711,-1.9727,-1.9733,-1.9746,-1.9761,-1.9779,-1.979,-1.9806,-1.983,-1.9835,-1.984,-1.9842,-1.9843,-1.9845,-1.9858,-1.9861,-1.9832,-1.9832,-1.9832,0,0,-1.9616,-1.9632,-1.9642,-1.967,-1.9683,-1.9701,-1.9699,-1.9717,-1.9731,-1.9736,-1.9758,-1.9768,-1.9786,-1.981,-1.9821,-1.9818,-1.9854,-1.9845,-1.9846,-1.9847,-1.986,-1.9863,-1.9865,-1.9833,-1.9833,-1.9833,0,0,-1.9632,-1.9646,-1.9664,-1.9678,-1.9698,-1.9708,-1.9713,-1.9734,-1.9741,-1.9764,-1.9769,-1.9784,-1.9813,-1.9826,-1.9836,-1.9859,-1.9861,-1.9864,-1.9872,-1.9885,-1.9888,-1.989,-1.9898,-1.99,-1.9866,-1.9866,-1.9866,0,-1.9634,-1.9661,-1.9673,-1.9692,-1.9704,-1.9711,-1.9729,-1.9742,-1.9766,-1.9774,-1.9771,-1.9809,-1.9822,-1.9849,-1.9854,-1.9863,-1.9868,-1.9861,-1.9887,-1.9889,-1.9891,-1.9899,-1.9901,-1.9867,-1.9867,-1.9867,-1.9866,0,-1.9662,-1.9681,-1.9694,-1.9718,-1.9732,-1.975,-1.9765,-1.9777,-1.9783,-1.9793,-1.9817,-1.9832,-1.9853,-1.986,-1.9865,-1.9888,-1.9885,-1.9885,-1.9879,-1.9894,-1.9901,-1.9904,-1.9867,-1.9867,-1.9867,-1.9867,0,0,-1.9674,-1.9707,-1.9711,-1.9722,-1.9746,-1.9761,-1.978,-1.9801,-1.9812,-1.9829,-1.9845,-1.9871,-1.987,-1.9882,-1.9889,-1.9901,-1.9918,-1.9899,-1.9899,-1.9901,-1.9944,-1.9944,-1.9947,-1.992,-1.992,-1.9921,-1.9942,0,-1.9692,-1.9727,-1.9739,-1.9768,-1.9786,-1.9794,-1.981,-1.9827,-1.9837,-1.9854,-1.9865,-1.9883,-1.9882,-1.9889,-1.9901,-1.9913,-1.9926,-1.9912,-1.9934,-1.9935,-1.9928,-1.9951,-1.9951,-1.997,-1.9945,-1.9946,-1.9946,0,-1.9717,-1.9736,-1.9767,-1.979,-1.9798,-1.9813,-1.9834,-1.985,-1.9868,-1.9875,-1.989,-1.9896,-1.9916,-1.991,-1.9938,-1.9928,-1.9938,-1.9945,-1.9946,-1.9948,-1.9941,-1.9953,-1.9977,-1.9979,-1.9951,-1.9951,-1.995,0,-1.9722,-1.9756,-1.9779,-1.9789,-1.9816,-1.9826,-1.9838,-1.9856,-1.9869,-1.9887,-1.9895,-1.9915,-1.9926,-1.9941,-1.9952,-1.9947,-1.9979,-1.9974,-1.9985,-1.9985,-1.999,-1.9989,-2.0015,-1.9998,-1.9998,-1.9998,-1.9998,0,-1.9741,-1.9759,-1.9782,-1.9795,-1.9817,-1.9831,-1.9851,-1.9863,-1.988,-1.9896,-1.9904,-1.9919,-1.9934,-1.9951,-1.996,-1.9982,-1.9986,-1.9992,-1.9994,-1.9991,-1.999,-1.9997,-1.9995,-1.9999,-1.9999,-1.9998,-1.9998,0,-1.9749,-1.9765,-1.9791,-1.9815,-1.9822,-1.9836,-1.9857,-1.9871,-1.9883,-1.9903,-1.9909,-1.9927,-1.9947,-1.9961,-1.9987,-1.9993,-2.0016,-2.0018,-2.001,-2.0011,-2.0021,-2.0019,-2.0051,-2.0056,-2.0036,-2.0036,-2.0036,0,-1.976,-1.9774,-1.9801,-1.9813,-1.9825,-1.9845,-1.9858,-1.9872,-1.9886,-1.9909,-1.992,-1.9942,-1.9959,-1.9991,-2.0006,-2.0026,-2.0029,-2.0038,-2.0031,-2.0028,-2.0028,-2.0027,-2.0028,-2.0039,-2.0039,-2.0039,-2.0039,0,-1.9776,-1.9784,-1.9803,-1.9825,-1.9841,-1.9859,-1.9877,-1.9886,-1.9904,-1.9919,-1.994,-1.9954,-1.9982,-2.0002,-2.0024,-2.0036,-2.004,-2.0042,-2.0045,-2.0042,-2.0036,-2.0039,-2.0012,-2.0041,-2.0041,-2.004,-2.004,-2.004,-1.9786,-1.98,-1.9821,-1.9842,-1.9858,-1.9875,-1.9889,-1.9904,-1.9922,-1.9946,-1.9954,-1.9976,-1.9996,-2.0026,-2.0038,-2.0055,-2.0054,-2.0059,-2.006,-2.0061,-2.0061,-2.0034,-2.0059,-2.0059,-2.0059,-2.0059,-2.0059,0,-1.9803,-1.9817,-1.9837,-1.9863,-1.9879,-1.9884,-1.9905,-1.9918,-1.9938,-1.9957,-1.9975,-2.0,-2.0021,-2.0038,-2.006,-2.007,-2.0073,-2.0075,-2.0074,-2.0077,-2.0061,-2.0056,-2.0073,-2.0073,-2.0073,-2.0073,-2.0073,-2.0073,-1.9813,-1.9837,-1.9847,-1.9879,-1.9893,-1.9916,-1.9927,-1.9943,-1.9958,-1.9986,-2.0004,-2.0016,-2.0034,-2.0057,-2.0076,-2.0081,-2.0088,-2.009,-2.0095,-2.0079,-2.0078,-2.0076,-2.0071,-2.0091,-2.0092,-2.0109,-2.0109,-2.0109]}]]